Location: UBC Liquid-Mirror Observatory
(49.2876°N, 122.5728°W)
Time: 01:57:31
(UTC-07:00)

KITSAT 1 - Visible Passes

Search period start: 20 October 2017 00:00
Search period end: 30 October 2017 00:00
Orbit: 1304 x 1326 km, 66.1° (Epoch: 19 October)

Date Brightness Start Highest point End Pass type
(mag) Time Alt. Az. Time Alt. Az. Time Alt. Az.
20 Oct 11.8 03:37:01 19° SE 03:40:22 25° ESE 03:46:36 10° NE visible
20 Oct 10.2 05:29:03 22° SW 05:34:49 89° NW 05:43:01 10° NE visible
21 Oct 11.3 03:53:30 29° SE 03:56:02 36° ESE 04:03:12 10° NE visible
21 Oct 10.2 05:45:32 23° SW 05:50:58 69° NW 05:59:08 10° NE visible
22 Oct 10.8 04:09:51 42° SSE 04:11:49 50° ESE 04:19:34 10° NE visible
22 Oct 10.4 06:01:52 22° WSW 06:07:14 54° NW 06:15:13 10° NE visible
23 Oct 12.2 02:34:05 16° E 02:34:05 16° E 02:38:21 10° ENE visible
23 Oct 10.3 04:26:05 56° S 04:27:43 68° ESE 04:35:48 10° NE visible
23 Oct 10.7 06:18:07 19° W 06:23:39 43° NW 06:31:22 10° NE visible
24 Oct 11.8 02:50:14 24° E 02:50:14 24° E 02:55:29 10° NE visible
24 Oct 10.1 04:42:15 64° SW 04:43:44 90° ESE 04:51:57 10° NE visible
24 Oct 11.0 06:34:16 15° W 06:40:10 35° NNW 06:47:33 10° NE visible
25 Oct 11.4 03:06:20 33° E 03:06:20 33° E 03:12:06 10° NE visible
25 Oct 10.1 04:58:20 58° WSW 04:59:53 70° NW 05:08:03 10° NE visible
25 Oct 11.2 06:50:21 12° W 06:56:47 30° NNW 07:03:50 10° NE visible
26 Oct 11.0 03:22:21 44° E 03:22:21 44° E 03:28:29 10° NE visible
26 Oct 10.4 05:14:21 47° W 05:16:09 55° NW 05:24:10 10° NE visible
26 Oct 11.3 07:06:50 10° WNW 07:13:31 27° NNW 07:20:13 10° NE visible
27 Oct 12.5 01:46:19 12° ENE 01:46:19 12° ENE 01:47:09 10° ENE visible
27 Oct 10.7 03:38:19 55° ENE 03:38:19 55° ENE 03:44:43 10° NE visible
27 Oct 10.7 05:30:19 37° WNW 05:32:33 44° NW 05:40:18 10° NE visible
28 Oct 12.3 02:02:15 16° ENE 02:02:15 16° ENE 02:04:21 10° NE visible
28 Oct 10.5 03:54:14 63° NE 03:54:14 63° NE 04:00:52 10° NE visible
28 Oct 11.0 05:46:13 29° WNW 05:49:04 36° NNW 05:56:28 10° NE visible
29 Oct 12.0 02:18:07 21° ENE 02:18:07 21° ENE 02:21:00 10° NE visible
29 Oct 10.4 04:10:07 62° N 04:10:07 62° N 04:16:59 10° NE visible
29 Oct 11.2 06:02:06 22° WNW 06:05:41 31° NNW 06:12:44 10° NE visible
